Regional Weather Roundup
Issued by NWS State College, PA

Home | Current Version | Previous Version | Graphics & Text | Print | Product List | Glossary Off
Versions: 1 2 3 4 5 6 7 8 9 10 11 12 13 14 15 16 17 18 19 20 21 22 23 24 25 26 27 28 29 30 31 32 33 34 35 36 37 38 39 40 41 42 43 44 45 46 47 48 49 50

000
ASUS41 KCTP 270503
RWRCTP

REGIONAL WEATHER ROUNDUP
NATIONAL WEATHER SERVICE STATE COLLEGE PA
100 AM EDT THU APR 27 2017

Note: "fair" indicates few or no clouds below 12,000 feet with no
significant weather and/or obstructions to visibility.

* = STATION THAT DOES NOT REPORT PRECIPITATION /E.G. RAIN...SNOW...ETC/
    THUNDER OR FOG.

PAZ002>004-007>009-013>016-020>023-029>032-270600-
WESTERN PENNSYLVANIA

CITY           SKY/WX    TMP DP  RH WIND       PRES   REMARKS
ERIE           CLEAR     67  55  65 SE14      29.66S
MEADVILLE      CLEAR     66  55  67 VRB5      29.70S
FRANKLIN*      CLEAR     61  52  72 SE8       29.73S
NEW CASTLE     FAIR      64  56  75 SE3       29.70S
BEAVER COUNTY  NOT AVBL
BUTLER*        CLEAR     64  55  72 SE5       29.72S
PITTSBURGH INT PTCLDY    64  56  75 CALM      29.70S
PITTSBURGH     CLEAR     65  54  67 S8        29.70F
INDIANA*       CLEAR     64  57  77 S8G16     29.77S
LATROBE        CLEAR     63  57  82 CALM      29.73S
WASHINGTON CO* CLEAR     55  54  94 CALM      29.73S
$$

PAZ004>006-010>012-017>019-024>028-033>037-041-042-045-046-049>053-270600-
CENTRAL PENNSYLVANIA

CITY           SKY/WX    TMP DP  RH WIND       PRES   REMARKS
BRADFORD       CLEAR     59  55  87 SE7       29.78R
DUBOIS         CLEAR     61  54  77 SE8       29.76S
CLEARFIELD     CLEAR     59  56  89 CALM      29.79S
JOHNSTOWN      CLEAR     59  56  89 S9        29.79F
ALTOONA        CLEAR     62  57  83 S6        29.81S
STATE COLLEGE  CLEAR     61  56  85 SW5       29.81R
WILLIAMSPORT   CLEAR     62  56  80 E5        29.79R
SELINSGROVE    CLEAR     54  53  97 CALM      29.82S
FT INDIANTOWN  FOG       54  54 100 CALM      29.84R VSB 1/2
CAPITAL CITY   CLEAR     57  54  89 E5        29.83S
HARRISBURG     PTCLDY    57  56  96 E7        29.83S
YORK           PTCLDY    56  55  97 CALM      29.83S
$$

PAZ038>040-043-044-047-048-054-055-060>062-067>071-270600-
EASTERN PENNSYLVANIA

CITY           SKY/WX    TMP DP  RH WIND       PRES   REMARKS
SCRANTON       PTCLDY    60  55  83 CALM      29.83R
MOUNT POCONO   CLOUDY    54  54 100 SE3       29.86S
ALLENTOWN      CLOUDY    63  55  75 S3        29.85R
QUAKERTOWN*    CLOUDY    59  57  94 CALM      29.86S
READING        CLOUDY    62  59  90 S3        29.84R
LANCASTER      CLOUDY    56  56 100 E3        29.85S FOG
COATESVILLE    CLOUDY    59  59 100 CALM      29.87S FOG
POTTSTOWN      CLOUDY    59  56  89 CALM      29.86S
BLUE BELL      CLOUDY    59  55  88 CALM      29.87S
DOYLESTOWN     CLOUDY    60  58  92 S5        29.85R
WILLOW GROVE   NOT AVBL
NORTH PHILA    CLOUDY    63  57  81 CALM      29.87R
PHILADELPHIA   CLOUDY    62  56  80 CALM      29.86R
$$



USA.gov is the U.S. government's official web portal to all federal, state and local government web resources and services.